K5FEP Weather Reports


time (UTC)temp
C
wind
direction
speed
KPH
gust
KPH
rain 1hr
cm
rain 24hr
cm
rain mn
cm
humidity
%
barometer
mb
20260505051522 17 64 3.2 4.8 0.00 0.00 0.00 48 1013.3
20260505051020 17 320 1.6 1.6 0.00 0.00 0.00 48 1013.4
20260505050518 17 131 0.0 1.6 0.00 0.00 0.00 48 1013.0
20260505041445 18 35 3.2 9.7 0.00 0.00 0.00 45 1013.0
20260505040942 17 35 1.6 9.7 0.00 0.00 0.00 46 1012.9
20260505040440 17 41 3.2 3.2 0.00 0.00 0.00 46 1012.9
20260505035937 17 48 3.2 3.2 0.00 0.00 0.00 47 1012.7
20260505035433 17 59 1.6 3.2 0.00 0.00 0.00 48 1012.7
20260505034930 17 19 6.4 6.4 0.00 0.00 0.00 48 1012.9
20260505034426 16 206 0.0 0.0 0.00 0.00 0.00 50 1012.6
20260505033924 16 193 1.6 3.2 0.00 0.00 0.00 50 1012.9
20260505033420 16 245 0.0 0.0 0.00 0.00 0.00 52 1012.7
20260505032919 16 211 0.0 1.6 0.00 0.00 0.00 53 1012.7
20260505032415 16 251 0.0 0.0 0.00 0.00 0.00 54 1012.6
20260505031912 15 251 0.0 0.0 0.00 0.00 0.00 56 1012.8
20260505031409 16 251 0.0 0.0 0.00 0.00 0.00 55 1012.8
20260505030906 16 250 0.0 0.0 0.00 0.00 0.00 55 1012.8
20260505030402 16 251 0.0 0.0 0.00 0.00 0.00 55 1012.8
20260505025857 16 228 0.0 1.6 0.00 0.00 0.00 55 1013.0
20260505025355 16 314 0.0 1.6 0.00 0.00 0.00 55 1012.7
20260505024854 16 299 0.0 0.0 0.00 0.00 0.00 55 1012.8
20260505024351 16 299 0.0 1.6 0.00 0.00 0.00 57 1013.0
20260505023848 15 261 0.0 0.0 0.00 0.00 0.00 62 1012.8
20260505023345 15 262 0.0 0.0 0.00 0.00 0.00 62 1012.9
20260505022842 15 261 0.0 0.0 0.00 0.00 0.00 62 1012.7
20260505022339 15 261 0.0 0.0 0.00 0.00 0.00 62 1012.8
20260505021836 16 261 0.0 0.0 0.00 0.00 0.00 61 1012.7
20260505021333 16 261 0.0 0.0 0.00 0.00 0.00 59 1012.8
20260505020828 16 262 0.0 0.0 0.00 0.00 0.00 59 1012.7
20260505020324 16 261 0.0 1.6 0.00 0.00 0.00 58 1012.7
20260505015821 16 276 0.0 0.0 0.00 0.00 0.00 57 1012.6
20260505015318 17 235 0.0 1.6 0.00 0.00 0.00 58 1012.9
20260505014816 17 312 0.0 1.6 0.00 0.00 0.00 55 1012.6
20260505014312 17 153 1.6 1.6 0.00 0.00 0.00 51 1012.7
20260505013809 17 157 1.6 1.6 0.00 0.00 0.00 53 1012.5
20260505013306 16 157 0.0 0.0 0.00 0.00 0.00 57 1012.4
20260505012805 17 157 0.0 0.0 0.00 0.00 0.00 58 1012.4
20260505012304 17 157 0.0 0.0 0.00 0.00 0.00 57 1012.3
20260505011757 17 157 0.0 0.0 0.00 0.00 0.00 55 1012.4
20260505011255 17 157 0.0 0.0 0.00 0.00 0.00 56 1012.2
20260505010750 17 158 0.0 0.0 0.00 0.00 0.00 57 1012.2
20260505010247 17 158 0.0 0.0 0.00 0.00 0.00 56 1012.3
20260505005743 17 158 0.0 0.0 0.00 0.00 0.00 57 1012.2
20260505005240 18 158 0.0 0.0 0.00 0.00 0.00 55 1012.1
20260505004737 18 158 0.0 0.0 0.00 0.00 0.00 55 1011.9
20260505004233 18 158 0.0 0.0 0.00 0.00 0.00 54 1012.1
20260505003731 18 158 0.0 0.0 0.00 0.00 0.00 52 1012.1
20260505003229 18 158 0.0 0.0 0.00 0.00 0.00 53 1012.0
20260505002725 18 158 0.0 0.0 0.00 0.00 0.00 48 1011.9
20260505002222 19 158 0.0 0.0 0.00 0.00 0.00 50 1012.0
20260505001720 20 158 0.0 0.0 0.00 0.00 0.00 50 1011.9
20260505001217 20 158 0.0 0.0 0.00 0.00 0.00 49 1011.9
20260505000714 20 158 0.0 0.0 0.00 0.00 0.00 47 1011.9
20260505000212 21 158 0.0 0.0 0.00 0.00 0.00 46 1011.8
20260504235708 21 158 0.0 0.0 0.00 0.00 0.00 45 1011.8
20260504235204 21 158 0.0 0.0 0.00 0.00 0.00 44 1011.8
20260504234702 21 158 0.0 0.0 0.00 0.00 0.00 43 1011.7
20260504234159 22 158 0.0 0.0 0.00 0.00 0.00 43 1011.7
20260504233655 22 158 0.0 0.0 0.00 0.00 0.00 41 1011.5
20260504233151 23 157 0.0 1.6 0.00 0.00 0.00 40 1011.3
20260504232648 23 159 0.0 1.6 0.00 0.00 0.00 39 1011.6
20260504232145 23 153 0.0 1.6 0.00 0.00 0.00 37 1011.7
20260504231642 24 1 3.2 4.8 0.00 0.00 0.00 35 1011.3
20260504231138 24 40 3.2 6.4 0.00 0.00 0.00 34 1011.4
20260504230635 25 81 3.2 6.4 0.00 0.00 0.00 34 1011.4
20260504230133 25 78 3.2 4.8 0.00 0.00 0.00 34 1011.5
20260504225632 25 59 1.6 6.4 0.00 0.00 0.00 33 1011.5
20260504225127 25 128 6.4 12.9 0.00 0.00 0.00 33 1011.5
20260504224624 25 157 6.4 11.3 0.00 0.00 0.00 33 1011.6
20260504224121 25 32 6.4 6.4 0.00 0.00 0.00 34 1011.7
20260504223618 25 69 1.6 4.8 0.00 0.00 0.00 33 1011.6
20260504223114 25 113 1.6 3.2 0.00 0.00 0.00 34 1011.7
20260504222611 25 68 3.2 4.8 0.00 0.00 0.00 35 1011.7
20260504222108 24 49 3.2 4.8 0.00 0.00 0.00 34 1011.6
20260504221605 24 74 3.2 4.8 0.00 0.00 0.00 33 1011.7
20260504221102 25 90 4.8 6.4 0.00 0.00 0.00 34 1011.7
20260504220558 25 62 4.8 6.4 0.00 0.00 0.00 33 1011.9
20260504220055 25 85 1.6 6.4 0.00 0.00 0.00 33 1011.7
20260504215552 26 42 4.8 12.9 0.00 0.00 0.00 32 1011.8
20260504215050 26 110 6.4 9.7 0.00 0.00 0.00 31 1012.0
20260504214545 26 32 1.6 4.8 0.00 0.00 0.00 32 1011.8
20260504214041 26 164 4.8 6.4 0.00 0.00 0.00 30 1011.7
20260504213538 26 122 3.2 9.7 0.00 0.00 0.00 32 1011.7
20260504213036 26 51 9.7 14.5 0.00 0.00 0.00 30 1011.5
20260504212531 26 66 4.8 9.7 0.00 0.00 0.00 31 1011.8
20260504212029 26 40 9.7 17.7 0.00 0.00 0.00 31 1011.8
20260504211526 26 47 4.8 6.4 0.00 0.00 0.00 31 1011.7
20260504211023 26 83 8.0 22.5 0.00 0.00 0.00 30 1011.7
20260504210520 26 281 1.6 3.2 0.00 0.00 0.00 32 1011.6
20260504210016 26 58 4.8 6.4 0.00 0.00 0.00 31 1011.6
20260504205514 26 25 1.6 4.8 0.00 0.00 0.00 33 1011.5
20260504205012 26 85 6.4 6.4 0.00 0.00 0.00 31 1011.6
20260504204510 25 50 8.0 11.3 0.00 0.00 0.00 29 1011.5
20260504204008 25 157 1.6 6.4 0.00 0.00 0.00 31 1011.7
20260504203506 25 96 3.2 9.7 0.00 0.00 0.00 31 1011.8
20260504203003 24 53 1.6 9.7 0.00 0.00 0.00 33 1011.9
20260504202459 24 92 8.0 16.1 0.00 0.00 0.00 32 1011.9
20260504201955 25 70 3.2 6.4 0.00 0.00 0.00 31 1011.8
20260504201453 25 47 6.4 9.7 0.00 0.00 0.00 29 1011.9
20260504200950 25 60 4.8 9.7 0.00 0.00 0.00 30 1011.9
20260504200447 26 52 6.4 11.3 0.00 0.00 0.00 29 1012.1
20260504195943 25 80 4.8 4.8 0.00 0.00 0.00 29 1011.9
20260504195439 26 157 3.2 6.4 0.00 0.00 0.00 29 1012.4
20260504194936 26 31 4.8 6.4 0.00 0.00 0.00 30 1012.1
20260504194432 26 69 3.2 12.9 0.00 0.00 0.00 31 1012.4
20260504193928 25 50 4.8 6.4 0.00 0.00 0.00 30 1012.6
20260504193426 25 41 6.4 16.1 0.00 0.00 0.00 30 1012.6
20260504192924 25 86 1.6 12.9 0.00 0.00 0.00 31 1012.5
20260504192421 25 19 6.4 6.4 0.00 0.00 0.00 29 1012.7
20260504191920 24 116 3.2 12.9 0.00 0.00 0.00 33 1012.9
20260504191418 24 118 11.3 16.1 0.00 0.00 0.00 31 1013.0
20260504190913 25 35 3.2 9.7 0.00 0.00 0.00 31 1013.0
20260504190409 23 109 1.6 4.8 0.00 0.00 0.00 31 1013.0
20260504185905 24 32 3.2 4.8 0.00 0.00 0.00 29 1013.0
20260504185403 25 54 8.0 12.9 0.00 0.00 0.00 29 1013.0
20260504184858 25 54 6.4 11.3 0.00 0.00 0.00 28 1013.1
20260504184354 25 0 4.8 11.3 0.00 0.00 0.00 29 1013.0
20260504183850 25 38 3.2 6.4 0.00 0.00 0.00 29 1013.3
20260504183348 25 39 6.4 12.9 0.00 0.00 0.00 28 1013.1
20260504182845 25 97 3.2 9.7 0.00 0.00 0.00 29 1013.1
20260504182343 24 79 6.4 11.3 0.00 0.00 0.00 28 1013.3
20260504181839 24 57 19.3 27.4 0.00 0.00 0.00 27 1013.5
20260504181337 24 105 9.7 14.5 0.00 0.00 0.00 26 1013.6
20260504180836 24 163 1.6 6.4 0.00 0.00 0.00 28 1013.7
20260504180334 25 0 1.6 6.4 0.00 0.00 0.00 30 1013.4
20260504175832 24 23 3.2 6.4 0.00 0.00 0.00 28 1013.5
20260504175328 23 17 6.4 12.9 0.00 0.00 0.00 27 1013.6
20260504174827 23 92 4.8 12.9 0.00 0.00 0.00 28 1013.4
20260504174324 23 66 11.3 14.5 0.00 0.00 0.00 27 1013.6
20260504173820 23 303 6.4 14.5 0.00 0.00 0.00 29 1013.6
20260504173317 23 61 4.8 6.4 0.00 0.00 0.00 27 1013.8
20260504172814 23 106 6.4 9.7 0.00 0.00 0.00 30 1014.0
20260504172311 23 41 4.8 12.9 0.00 0.00 0.00 28 1014.0
20260504171807 23 307 3.2 4.8 0.00 0.00 0.00 30 1014.1
20260504171304 23 16 6.4 12.9 0.00 0.00 0.00 27 1014.2
20260504170801 23 210 3.2 4.8 0.00 0.00 0.00 31 1014.2
20260504170258 23 277 6.4 9.7 0.00 0.00 0.00 27 1014.3
20260504160216 21 219 0.0 12.9 0.00 0.00 0.00 30 1015.3
20260504151150 20 11 8.0 9.7 0.00 0.00 0.00 34 1015.7
20260504150647 20 74 6.4 14.5 0.00 0.00 0.00 36 1015.7
20260504150144 20 30 3.2 11.3 0.00 0.00 0.00 38 1015.6
20260504141113 18 26 1.6 3.2 0.00 0.00 0.00 47 1015.8
20260504140609 18 58 3.2 4.8 0.00 0.00 0.00 45 1015.9
20260504140105 17 222 0.0 1.6 0.00 0.00 0.00 48 1015.6
20260504130533 14 202 1.6 3.2 0.00 0.00 0.00 61 1016.1
20260504110421 3 232 0.0 0.0 0.00 0.00 0.00 92 1016.6
20260504100338 2 233 0.0 0.0 0.00 0.00 0.00 92 1016.3
20260504081731 3 273 0.0 0.0 0.00 0.00 0.00 90 1016.0
20260504081227 3 273 0.0 0.0 0.00 0.00 0.00 90 1016.0
20260504080724 3 273 0.0 0.0 0.00 0.00 0.00 90 1016.1
20260504080221 3 273 0.0 0.0 0.00 0.00 0.00 90 1016.3
20260504070148 3 273 0.0 0.0 0.00 0.00 0.00 88 1016.2
20260504060109 3 302 0.0 0.0 0.00 0.00 0.00 86 1016.1